Location: Newark
(39.0622°N, 106.5590°E)
Time: 07:56:15
(UTC+00:00)

ISS - Visible Passes

Search period start: 09 December 2019 00:00
Search period end: 19 December 2019 00:00
Orbit: 411 x 421 km, 51.6° (Epoch: 09 December)

Date Brightness Start Highest point End Pass type
(mag) Time Alt. Az. Time Alt. Az. Time Alt. Az.
09 Dec -3.1 10:28:18 10° NW 10:31:27 37° NNE 10:33:32 18° E visible
09 Dec -0.8 12:05:19 10° WNW 12:06:30 17° W 12:06:30 17° W visible
10 Dec -2.6 11:16:31 10° WNW 11:19:43 42° SW 11:21:08 26° S visible
11 Dec -3.7 10:27:57 10° NW 10:31:18 80° SW 10:34:39 10° SE visible
12 Dec -0.6 11:17:19 10° W 11:19:13 14° SW 11:21:06 10° SSW visible
13 Dec -1.3 10:28:04 10° WNW 10:30:53 25° SW 10:33:42 10° S visible
